GFSNIL_con_3kmhel_273.txt.gz
Helicity
48 47 50 60 44 32 27 27 27 24 26 27 28 30 31 31 35 37 31 32 26 21
70 65 52 45 36 34 35 29 36 30 23 20 23 29 29 27 33 25 20 16 25 21
51 46 44 44 52 50 37 36 28 16 1 -5 -2 4 1 -1 14 11 12 12 11 17
41 47 49 54 51 40 31 23 14 -5 -9 -6 -4 6 2 1 8 6 5 3 -7 -7
55 57 61 51 39 32 24 3 -2 5 -6 -12 -4 -4 -3 -3 -7 -14 -18 -21 -19 -12
66 62 55 45 35 22 14 12 7 2 -3 -11 1 3 3 3 -9 -19 -25 -17 -15 -4
61 54 49 47 41 35 25 24 23 14 1 -9 2 5 -0 -11 -33 -27 -11 -1 -0 11
64 58 57 54 43 36 36 29 19 8 4 -15 -4 -8 -5 -22 -34 -14 4 9 23 38
60 60 58 56 46 41 38 33 27 21 5 -3 -8 -2 6 -13 -20 -8 -0 15 33 38
63 68 69 61 62 61 49 34 35 31 13 8 13 23 25 14 11 4 20 23 35 46
70 82 77 78 75 63 53 50 33 30 21 13 26 27 40 24 34 38 36 29 32 44
77 87 84 84 77 67 59 51 40 31 26 21 27 44 47 42 47 43 52 36 30 42
85 86 88 86 84 74 59 52 37 35 31 30 36 62 55 46 38 54 62 43 51 53
90 92 89 86 76 62 59 56 46 37 35 36 47 53 56 53 48 57 54 58 58 53

GFSNIL_con_3kmhel_276.txt.gz
Helicity
74 68 67 63 51 56 61 61 56 56 53 44 39 36 26 30 34 37 39 52 56 49
71 69 66 59 62 63 57 50 51 47 44 41 47 43 34 34 41 37 42 49 59 56
68 63 60 64 70 64 56 52 51 47 44 45 48 44 33 20 30 30 34 39 48 40
72 69 69 70 70 70 63 59 55 43 38 41 39 32 19 17 29 28 30 32 24 10
84 76 78 80 76 67 60 48 42 32 30 33 25 18 22 19 9 12 12 13 -0 -2
80 77 74 70 68 57 51 43 39 32 27 26 21 19 10 2 -5 -9 -7 -4 -3 5
79 73 72 73 64 56 48 44 39 32 19 22 22 20 9 -8 -11 -12 -4 1 -5 -1
82 80 79 71 64 53 45 44 40 32 21 18 29 25 22 -13 -8 -2 11 8 10 39
82 81 75 65 57 54 55 54 41 29 20 18 30 22 26 -14 -14 13 16 9 32 41
80 77 71 63 61 58 56 47 43 31 24 27 39 35 32 -18 5 22 22 35 43 47
79 82 75 68 66 62 51 43 43 43 31 28 46 46 41 -0 27 30 43 54 52 51
85 79 71 68 66 62 59 55 52 44 39 36 48 53 43 24 33 42 51 49 55 49
82 74 73 76 73 66 63 62 49 52 47 34 47 66 39 34 32 32 36 44 47 78
80 82 82 85 74 68 65 58 55 57 52 46 39 63 44 37 17 37 28 39 43 35

GFSNIL_con_3kmhel_279.txt.gz
Helicity
92 89 85 81 74 78 81 80 85 86 87 89 84 70 65 68 64 65 61 75 61 45
109 102 95 85 82 85 83 79 90 86 85 85 77 74 64 69 70 65 57 55 53 40
114 103 91 87 98 102 93 93 86 82 82 80 78 83 77 74 67 61 56 49 51 47
113 104 96 98 96 90 96 94 89 85 88 87 92 87 78 61 63 62 53 44 39 39
111 101 97 100 93 95 104 95 94 90 92 86 81 71 64 61 51 43 38 29 17 18
105 97 105 101 104 104 94 100 92 91 88 79 71 67 58 47 38 29 28 18 7 10
112 117 113 111 109 103 96 99 92 75 73 70 75 69 50 28 24 18 28 16 17 21
141 132 129 126 112 102 96 89 76 66 65 69 72 62 42 5 19 20 21 29 24 42
146 138 136 120 109 99 92 76 66 65 63 67 65 52 36 9 -9 19 32 32 26 23
142 138 123 109 100 89 85 76 71 67 62 68 67 53 23 -4 -8 24 35 28 30 36
141 134 120 110 98 90 79 74 74 64 53 59 65 57 32 -26 -3 30 35 34 46 38
145 136 120 109 100 88 81 76 72 63 56 50 68 58 49 16 29 36 38 39 56 51
141 129 117 109 101 88 77 77 74 73 69 56 65 65 44 45 33 37 29 32 60 119
146 130 120 122 109 92 85 85 83 74 62 55 58 61 58 55 39 35 20 36 36 38

GFSNIL_con_3kmhel_282.txt.gz
Helicity
191 149 147 133 124 127 106 81 74 73 78 93 107 90 87 95 71 76 56 75 76 48
218 190 183 184 152 127 91 76 83 83 98 109 121 112 80 88 78 72 59 61 54 41
236 180 128 128 138 139 136 100 91 106 109 117 120 118 90 74 68 65 54 39 47 44
190 161 143 146 122 121 111 108 116 127 122 117 119 103 87 65 74 66 58 52 51 48
197 161 154 143 142 128 138 138 145 130 124 123 106 94 87 88 75 73 71 57 47 42
198 177 169 157 148 152 151 141 143 125 134 123 115 110 88 84 73 64 57 45 40 41
188 177 166 154 143 144 131 140 130 133 126 126 134 120 103 73 66 54 52 48 30 53
208 186 169 165 163 157 155 147 132 134 133 122 121 108 77 48 53 52 55 48 35 51
223 198 188 186 188 187 187 150 138 127 121 130 117 102 69 43 36 37 58 51 48 38
220 206 202 206 187 189 168 154 156 142 139 126 108 83 51 37 32 37 59 53 61 41
246 232 212 197 191 185 173 164 153 127 125 117 92 76 48 21 18 49 58 54 77 54
249 242 234 216 206 190 173 158 150 124 107 114 83 85 78 60 65 61 56 79 84 79
250 250 249 244 213 187 172 174 138 134 138 122 87 88 92 95 71 65 62 61 73 73
257 260 260 255 230 210 188 171 164 145 101 114 89 79 104 109 77 63 25 58 53 43

GFSNIL_con_3kmhel_285.txt.gz
Helicity
304 242 216 186 199 154 130 113 110 118 125 117 89 114 93 92 88 98 118 109 84 55
338 323 316 315 268 169 129 116 116 117 125 135 90 99 98 98 95 97 90 84 75 53
362 368 367 313 227 162 132 136 115 123 129 144 106 98 107 98 104 107 77 63 66 61
379 337 319 280 227 176 149 144 126 117 128 143 137 111 127 117 115 123 99 63 67 65
336 332 309 252 208 183 174 155 140 135 140 158 151 148 139 124 108 96 86 69 61 55
335 316 275 223 209 200 203 182 177 178 178 186 183 151 123 110 89 71 64 56 54 52
299 286 270 232 226 216 208 210 198 192 198 180 183 177 162 116 85 60 56 66 57 49
308 280 264 236 207 209 216 203 213 209 206 182 157 130 133 128 95 77 78 72 49 53
311 276 248 215 202 213 221 218 218 207 188 181 138 114 121 110 111 72 77 66 54 53
305 278 251 245 252 251 235 226 218 212 193 174 138 110 109 116 94 68 70 64 59 59
314 300 272 277 283 276 245 230 223 200 187 164 140 120 116 96 66 51 80 70 66 57
314 316 300 275 282 266 262 247 212 188 168 163 157 134 129 113 77 108 97 82 63 47
312 301 290 276 269 260 254 232 222 185 166 156 157 148 149 133 118 116 80 62 60 72
288 288 292 268 270 267 271 262 281 232 194 165 151 154 162 129 111 110 89 69 59 53

GFSNIL_con_3kmhel_288.txt.gz
Helicity
301 293 266 279 267 227 208 172 158 152 132 135 133 143 152 150 141 127 123 124 105 99
307 323 305 280 245 227 207 183 178 157 144 139 147 139 126 123 129 131 122 128 118 94
322 344 346 315 263 230 213 194 190 182 153 148 153 135 120 115 109 130 116 103 110 109
379 381 372 331 278 242 223 191 196 189 164 150 143 124 121 118 111 124 116 108 114 121
392 394 391 328 283 272 219 183 186 190 173 155 141 123 112 110 108 116 122 114 113 101
395 388 362 318 290 264 232 211 191 200 198 178 139 128 112 111 111 122 103 97 99 90
399 375 355 330 301 269 245 248 231 222 222 202 174 145 108 114 117 131 117 107 104 85
415 381 349 325 312 301 271 269 238 235 220 201 190 163 139 120 129 138 131 117 108 80
395 373 316 326 336 329 306 281 242 212 193 173 164 155 151 131 132 120 106 110 79 69
369 347 323 322 336 325 297 271 239 208 182 163 149 132 147 129 124 125 107 90 74 72
354 344 331 333 327 324 282 251 222 200 178 174 151 130 132 126 134 128 131 102 82 63
346 347 343 325 316 322 298 261 225 194 184 169 159 130 116 123 156 154 130 102 77 62
401 363 316 293 301 314 291 248 240 211 187 167 159 133 121 167 162 159 121 99 82 81
345 328 340 345 318 324 301 274 255 234 206 186 159 149 133 173 156 135 107 88 69 70